www.pogodaiklimat.ru

Погода и климат >> Архив погоды >> Кипр >> Akrotiri


ПОГОДА в Akrotiri

  • Прогноз погоды в Akrotiri
  • Монитор погоды в Akrotiri
  • Климат города

АРХИВ ПОГОДЫ в Akrotiri

Время (UTC), дата Ветер
(напр.,м/с)
 
Видим.   Явления Облачность Т
(С)
Тd
(С)
f
(%)
Тe
(С)
Тes
(С)
Комфортность P
(гПа)
Po
(гПа)
Тmin
(С)
Tmax
(С)
R
(мм)
R24
(мм)
S
(см)
17 20.06 З 8 н/о н/о +23.6 +18.0 71 +28 +28 душно 1008.6 1005.6
16 20.06 З 8 н/о н/о +24.9 +19.1 70 +30 +30 душно 1008.3 1005.3
18 20.06 З 8 30 км 1/1 1500 м
[Cu hum]
+23.0 +17.7 72 +28 +28 душно 1008.7 1005.7 +27.3
19 20.06 З 7 25 км 1/1 1500 м
[Sc]
+22.9 +17.6 72 +28 +28 душно 1009.2 1006.2
20 20.06 З 7 25 км 1/1 1500 м
[Sc]
+22.2 +19.0 82 +28 +28 душно 1009.2 1006.2
21 20.06 З 5 25 км 1/1 1500 м
[Sc]
+21.8 +18.7 83 +27 +27 душно 1008.9 1005.9
23 20.06 З 4 25 км 1/1 1500 м
[Sc]
+20.7 +18.5 87 +25 +25 комфорт 1008.6 1005.5
22 20.06 З 4 25 км 1/1 1500 м
[Sc]
+21.2 +18.7 86 +26 +26 душно 1008.7 1005.7
00 21.06 З 2 25 км ясно +20.1 +17.4 84 +24 +24 комфорт 1008.1 1005.0
01 21.06 З 2 30 км 1/1 600 м
[Sc]
+19.8 +16.5 81 +23 +23 комфорт 1007.8 1004.8
02 21.06 З 3 30 км 3/1 600 м
[Cu hum Ac trans Cc]
+20.7 +18.2 86 +25 +25 комфорт 1008.0 1004.9
03 21.06 З 1 40 км 3/3 750 м
[Sc]
+19.7 +18.1 90 +23 +23 комфорт 1008.2 1005.2
05 21.06 З 2 30 км 6/6 600 м
[Cu Sc]
+22.8 +17.8 73 +28 +30 душно 1009.2 1006.2
04 21.06 СВ 1 35 км 3/1 600 м
[Cu Sc Ac trans Ci fib]
+21.1 +18.1 83 +25 +27 комфорт 1008.4 1005.4
06 21.06 ЮЗ 3 35 км 3/3 800 м
[Cu hum]
+24.1 +16.4 62 +28 +33 душно 1009.1 1006.1 +19.3
07 21.06 Ю 4 35 км 3/3 1050 м
[Cu hum]
+25.0 +14.8 53 +28 +35 жарко 1008.9 1005.9
08 21.06 Ю 4 35 км 1/1 1050 м
[Cu med, cong Ac trans]
+25.4 +16.4 57 +29 +39 душно 1009.1 1006.1
09 21.06 ЮЗ 5 35 км 1/1 1050 м
[Cb cap Ci fib]
+24.7 +16.2 59 +28 +39 душно 1009.5 1006.5
11 21.06 З 5 35 км 1/1 750 м
[Cu med, cong]
+25.8 +16.9 58 +30 +39 душно 1009.3 1006.3
10 21.06 ЮЗ 6 35 км 1/1 1050 м
[Cu med, cong Ci fib]
+25.4 +16.3 57 +29 +37 душно 1009.5 1006.5
12 21.06 ЮЗ 6 35 км 3/1 1500 м
[Cu med, cong Ac trans]
+27.2 +17.4 55 +31 +37 душно 1009.1 1006.1
13 21.06 З 7 35 км 1/1 1050 м
[Cu med, cong Ac cuf Ci sp]
+26.9 +17.4 56 +31 +34 душно 1008.7 1005.8
14 21.06 ЮЗ 8 35 км 1/1 1200 м
[Cu hum Ac cast Ci fib]
+25.4 +17.2 60 +29 +31 душно 1008.5 1005.5
15 21.06 ЮЗ 7 35 км 3/3 1200 м
[Sc]
+25.2 +17.9 64 +30 +30 душно 1008.6 1005.6
17 21.06 З 6 40 км 1/1 1200 м
[Sc diur, vesp]
+24.0 +18.7 72 +29 +29 душно 1009.2 1006.2
16 21.06 З 6 35 км 1/1 1050 м
[Cu med, cong]
+24.8 +18.5 68 +29 +30 душно 1008.9 1005.9
18 21.06 З 6 40 км 1/1 1500 м
[Sc]
+23.6 +18.1 71 +28 +28 душно 1009.4 1006.4 +27.4
19 21.06 З 6 40 км ясно +23.5 +17.4 69 +27 +27 душно 1010.1 1007.0
20 21.06 З 4 н/о н/о +22.5 +18.4 78 +28 +28 душно 1010.5 1007.5
21 21.06 З 3 40 км ясно +21.9 +18.4 81 +27 +27 душно 1010.6 1007.5
22 21.06 СЗ 2 40 км ясно +21.5 +18.0 80 +26 +26 душно 1010.3 1007.3
00 22.06 З 2 40 км ясно +20.7 +14.4 67 +24 +24 комфорт 1009.8 1006.8
01 22.06 СЗ 3 40 км ясно +22.0 +13.6 59 +25 +25 комфорт 1009.5 1006.5
02 22.06 З 1 40 км ясно +21.0 +11.5 55 +24 +24 комфорт 1009.8 1006.8
03 22.06 С 2 40 км ясно +19.8 +14.4 71 +22 +22 комфорт 1010.3 1007.2
04 22.06 СВ 2 40 км ясно +21.5 +17.0 76 +25 +27 комфорт 1010.5 1007.4
05 22.06 СВ 3 50 км ясно +23.9 +17.4 67 +28 +32 душно 1010.9 1007.9
06 22.06 СВ 2 50 км ясно +25.8 +16.2 55 +29 +39 душно 1011.3 1008.3 +19.7
07 22.06 Ю 3 50 км 1/1 1200 м
[Cu hum]
+26.4 +17.2 57 +30 +42 душно 1011.6 1008.6
08 22.06 ЮЗ 4 40 км 1/1 1350 м
[Cu hum]
+27.6 +16.9 52 +31 +43 душно 1011.8 1008.8
09 22.06 З 7 40 км 1/1 1350 м
[Cu hum]
+27.2 +18.7 60 +32 +38 очень
душно
1011.8 1008.8
10 22.06 З 8 50 км 1/1 1350 м
[Cu hum]
+27.0 +20.4 67 +33 +36 очень
душно
1011.9 1009.0
11 22.06 З 9 40 км 1/1 1500 м
[Sc diur, vesp]
+27.5 +20.6 66 +34 +36 очень
душно
1011.7 1008.7
12 22.06 З 9 35 км 3/3 1500 м
[Sc diur, vesp Ac cuf]
+27.0 +20.7 68 +34 +35 очень
душно
1011.6 1008.6
13 22.06 З 10
{13}
30 км 3/1 1500 м
[Cu hum Ac trans]
+26.6 +20.9 71 +33 +34 очень
душно
1011.3 1008.3
14 22.06 З 9
{14}
30 км 4/1 1500 м
[Cu hum Ac trans Ci fib]
+27.1 +20.5 67 +34 +34 очень
душно
1010.8 1007.8
15 22.06 З 9
{13}
30 км 1/1 1500 м
[Cu hum Ac trans]
+26.3 +20.4 70 +33 +33 очень
душно
1010.6 1007.6
16 22.06 З 9
{13}
30 км 1/1 1500 м
[Cu hum Ac trans Ci fib]
+25.2 +20.3 74 +31 +31 очень
душно
1010.7 1007.7
17 22.06 З 8 40 км ясно +24.4 +18.9 71 +29 +29 душно 1010.8 1007.8
18 22.06 З 7 35 км ясно +23.8 +19.8 78 +29 +29 душно 1011.0 1008.0 +28.4
19 22.06 З 5 35 км ясно +23.2 +19.9 82 +30 +30 очень
душно
1011.4 1008.3
20 22.06 З 2 35 км ясно +23.0 +18.9 78 +29 +29 очень
душно
1011.7 1008.7
21 22.06 СЗ 1 35 км ясно +23.0 +19.0 78 +29 +29 очень
душно
1011.8 1008.7
22 22.06 СВ 1 35 км ясно +22.5 +19.1 81 +28 +28 душно 1011.8 1008.8
23 22.06 СЗ 1 35 км ясно +21.8 +17.9 79 +26 +26 душно 1011.6 1008.5
00 23.06 СЗ 2 35 км ясно +22.9 +14.7 60 +27 +27 душно 1011.3 1008.3
01 23.06 З 3 40 км ясно +21.8 +12.9 57 +24 +24 комфорт 1011.1 1008.1
02 23.06 З 2 50 км ясно +21.0 +14.0 64 +25 +25 комфорт 1011.1 1008.0
03 23.06 С 1 50 км ясно +20.9 +15.1 69 +25 +25 комфорт 1011.3 1008.3
04 23.06 СВ 3 50 км ясно +22.0 +16.9 73 +26 +28 душно 1011.9 1008.8
05 23.06 СВ 5 50 км ясно +24.2 +19.3 74 +29 +32 душно 1012.4 1009.3
06 23.06 В 5 40 км ясно +25.6 +19.3 68 +31 +36 очень
душно
1012.5 1009.5 +20.7
07 23.06 В 4 40 км 1/1 2000 м
[Cu hum]
+26.9 +19.4 64 +33 +41 очень
душно
1012.7 1009.7
08 23.06 В 4 40 км 1/1 2000 м
[Sc diur, vesp]
+28.3 +16.9 50 +32 +43 душно 1012.9 1009.9
09 23.06 ЮВ 4 40 км 1/1 2000 м
[Sc diur, vesp]
+29.3 +15.1 42 +32 +45 душно 1012.9 1010.0
10 23.06 ЮВ 4 40 км 1/1 2000 м
[Cu hum]
+29.8 +16.3 44 +33 +47 душно 1012.9 1010.0
11 23.06 Ю 3 н/о н/о +29.6 +13.9 38 +31 +31 жарко 1012.6 1009.7
12 23.06 Ю 4 35 км 1/1 2000 м
[Sc diur, vesp]
+29.4 +17.6 49 +34 +45 очень
душно
1012.3 1009.3
13 23.06 ЮЗ 5 30 км 1/1 1500 м
[Sc diur, vesp]
+28.6 +19.4 58 +34 +41 очень
душно
1011.7 1008.7
14 23.06 З 5 30 км 1/1 1200 м
[Cu hum]
+28.3 +21.6 67 +36 +39 очень
душно
1011.2 1008.2
15 23.06 З 5 30 км 1/1 2000 м
[Sc diur, vesp]
+27.5 +22.2 73 +36 +37 очень
душно
1010.9 1007.9
16 23.06 З 6 8000 м 1/1 90 м
[Sc diur, vesp]
+26.7 +23.0 80 +36 +36 очень
душно
1010.8 1007.8
17 23.06 З 5 25 км 1/1 120 м
[St]
+25.4 +22.0 81 +33 +33 очень
душно
1010.9 1007.9
18 23.06 ЮЗ 3 40 км ясно +24.6 +22.7 89 +32 +32 очень
душно
1011.1 1008.0 +30.9
19 23.06 З 4 40 км ясно +24.0 +21.2 84 +30 +30 очень
душно
1011.3 1008.3
20 23.06 ЮЗ 2 30 км ясно +23.4 +19.6 79 +30 +30 очень
душно
1011.3 1008.2
21 23.06 З 2 30 км ясно +24.5 +19.9 76 +30 +30 очень
душно
1011.1 1008.1
22 23.06 З 2 30 км ясно +23.2 +19.2 78 +30 +30 очень
душно
1010.7 1007.6
23 23.06 З 3 25 км ясно +23.3 +20.5 84 +31 +31 очень
душно
1010.1 1007.1
00 24.06 З 3 25 км ясно +23.5 +16.8 66 +27 +27 душно 1009.6 1006.6
01 24.06 З 3 30 км ясно +24.6 +13.3 49 +27 +27 жарко 1009.5 1006.5
02 24.06 СВ 2 35 км ясно +22.2 +17.4 74 +27 +27 душно 1009.6 1006.5
03 24.06 СВ 3 30 км 1/1 240 м
[St Ac trans]
+21.8 +19.1 85 +27 +27 душно 1009.8 1006.7
04 24.06 В 3 30 км 1/1 240 м
[St]
+23.8 +18.8 74 +29 +30 душно 1010.1 1007.1
05 24.06 СВ 4 30 км ясно +25.1 +20.7 77 +31 +35 очень
душно
1010.5 1007.5
06 24.06 В 4 30 км ясно +27.1 +19.8 64 +33 +39 очень
душно
1010.6 1007.7 +21.7
07 24.06 В 4 35 км 1/0
[Ac trans]
+28.0 +20.6 64 +35 +43 очень
душно
1010.7 1007.8
08 24.06 В 3 40 км 1/0
[Ac trans]
+29.3 +17.7 50 +34 +47 очень
душно
1010.8 1007.8
09 24.06 В 3 40 км 1/0
[Ac trans]
+29.4 +19.4 55 +35 +51 опасность
солнечного
удара
1010.9 1008.0
10 24.06 ЮВ 2 40 км 1/0
[Ac trans]
+29.1 +22.5 68 +38 +60 опасность
солнечного
удара
1010.9 1008.0
11 24.06 ЮЗ 2 40 км 1/0
[Ac trans]
+32.5 +20.5 49 +39 +58 опасность
солнечного
удара
1010.5 1007.6
12 24.06 З 4 40 км 1/0
[Ac trans]
+30.8 +18.0 46 +35 +45 очень
душно
1010.2 1007.2
13 24.06 З 5 30 км 1/0
[Ac trans]
+31.0 +13.5 34 +32 +38 жарко 1009.6 1006.6
14 24.06 З 5 40 км 1/0
[Ac trans]
+30.0 +18.0 49 +35 +38 очень
душно
1009.3 1006.3
15 24.06 З 6 40 км ясно +28.1 +21.1 66 +35 +37 очень
душно
1008.8 1005.8
16 24.06 З 6 40 км ясно +26.7 +22.7 79 +35 +36 очень
душно
1008.9 1005.9
17 24.06 З 6 30 км 1/1 150 м
[St]
+25.8 +23.0 85 +34 +34 очень
душно
1009.1 1006.1
18 24.06 З 5 40 км ясно +24.9 +23.2 90 +33 +33 очень
душно
1009.2 1006.2 +32.5
19 24.06 З 5 40 км ясно +24.2 +22.6 91 +32 +32 очень
душно
1009.4 1006.4
20 24.06 З 5 40 км ясно +23.9 +22.4 91 +31 +31 очень
душно
1009.6 1006.5
21 24.06 З 4 30 км ясно +24.8 +19.0 70 +30 +30 душно 1009.4 1006.4
22 24.06 З 3 30 км ясно +25.8 +16.2 55 +29 +29 душно 1009.0 1006.0
23 24.06 СЗ 2 30 км ясно +24.7 +15.5 57 +28 +28 душно 1008.7 1005.7
00 25.06 СЗ 2 30 км ясно +24.5 +12.0 46 +26 +26 жарко 1008.4 1005.4
01 25.06 СЗ 2 30 км ясно +23.5 +11.2 46 +25 +25 комфорт 1008.1 1005.1
02 25.06 СЗ 1 35 км ясно +23.1 +11.0 46 +25 +25 комфорт 1008.1 1005.1
03 25.06 ЮВ 2 40 км ясно +23.2 +11.3 47 +25 +26 комфорт 1008.3 1005.3
04 25.06 В 4 40 км ясно +25.3 +18.6 66 +30 +31 душно 1008.6 1005.6
05 25.06 В 5 50 км ясно +26.3 +21.7 76 +34 +36 очень
душно
1008.8 1005.9
06 25.06 В 4 50 км ясно +27.2 +21.8 72 +35 +42 очень
душно
1009.3 1006.3 +22.5
07 25.06 В 4 50 км ясно +28.2 +21.5 67 +36 +46 очень
душно
1009.5 1006.6
08 25.06 СВ 3 40 км ясно +28.5 +21.5 66 +36 +53 опасность
солнечного
удара
1009.9 1006.9
09 25.06 В 4 40 км 1/0
[Ac trans]
+30.1 +20.8 58 +37 +52 опасность
солнечного
удара
1009.9 1006.9
10 25.06 В 3 40 км 1/0
[Ac trans]
+30.9 +20.4 54 +38 +54 опасность
солнечного
удара
1009.7 1006.8
11 25.06 В 4 40 км 1/0
[Ac trans]
+31.5 +20.4 52 +38 +52 опасность
солнечного
удара
1009.3 1006.4
12 25.06 В 3 50 км 1/0
[Ac trans]
+31.8 +18.8 46 +37 +49 очень
душно
1008.8 1005.9
13 25.06 Ю 3 50 км 1/0
[Ac trans]
+34.7 +8.0 19 +33 +42 жарко 1008.4 1005.5
14 25.06 ЮЗ 4 50 км 1/0
[Ac trans]
+33.8 +9.4 22 +33 +38 жарко 1008.2 1005.3
15 25.06 З 5 40 км 1/0
[Ac trans]
+28.9 +20.0 59 +35 +37 очень
душно
1008.0 1005.0
16 25.06 З 4 50 км ясно +29.5 +19.8 56 +36 +36 очень
душно
1007.7 1004.8
17 25.06 З 4 40 км ясно +27.8 +21.0 67 +35 +35 очень
душно
1007.8 1004.8
18 25.06 З 5 50 км ясно +26.3 +22.8 81 +35 +35 очень
душно
1007.9 1004.9 +35.0
19 25.06 З 5 50 км ясно +26.2 +22.3 79 +34 +34 очень
душно
1007.9 1004.9
20 25.06 З 4 40 км ясно +25.5 +22.4 83 +33 +33 очень
душно
1008.0 1008.0
21 25.06 З 4 40 км ясно +25.8 +21.3 76 +33 +33 очень
душно
1007.7 1004.7
22 25.06 З 3 50 км ясно +25.3 +20.3 74 +31 +31 очень
душно
1007.5 1004.5
23 25.06 З 2 50 км ясно +26.9 +11.9 39 +28 +28 жарко 1007.1 1004.1
00 26.06 З 2 50 км ясно +26.7 +9.7 34 +27 +27 жарко 1006.7 1003.7
01 26.06 СЗ 2 50 км ясно +25.8 +10.0 37 +27 +27 жарко 1006.5 1003.5
02 26.06 СВ 1 50 км ясно +24.4 +9.8 40 +25 +25 комфорт 1006.4 1003.4
03 26.06 В 1 50 км ясно +24.5 +9.2 38 +25 +25 комфорт 1006.6 1003.6
04 26.06 В 3 50 км ясно +26.1 +16.4 55 +30 +31 душно 1007.3 1004.4
05 26.06 В 4 50 км ясно +27.8 +17.4 53 +32 +35 душно 1007.7 1004.8
06 26.06 В 5 50 км ясно +28.1 +14.1 42 +36 +40 очень
душно
1008.1 1005.2 +23.5
07 26.06 В 5 45 км ясно +28.8 +22.1 67 +37 +45 очень
душно
1008.2 1005.2
08 26.06 В 5 50 км ясно +31.0 +20.1 52 +37 +48 очень
душно
1008.2 1005.2
09 26.06 В 4 50 км ясно +32.2 +19.3 46 +38 +51 опасность
солнечного
удара
1008.3 1005.4
10 26.06 ЮВ 3 50 км ясно +33.2 +14.3 32 +35 +52 опасность
солнечного
удара
1008.1 1005.1
11 26.06 Ю 3 50 км 1/0
[Ac trans]
+31.4 +19.0 48 +37 +52 опасность
солнечного
удара
1007.7 1004.8
12 26.06 ЮЗ 5 50 км 1/0
[Ac trans]
+30.3 +19.4 52 +36 +45 очень
душно
1007.6 1004.6
13 26.06 З 6 30 км 1/0
[Ac trans]
+30.1 +21.1 59 +38 +43 очень
душно
1007.4 1004.4
14 26.06 З 8 30 км 1/0
[Ac trans]
+29.5 +19.0 53 +35 +36 очень
душно
1006.9 1003.9
15 26.06 З 8 30 км 1/0
[Ac trans]
+29.8 +19.3 53 +35 +36 очень
душно
1006.6 1003.7
16 26.06 З 8 н/о н/о +28.6 +20.3 61 +35 +35 очень
душно
1006.7 1003.7
17 26.06 З 7 30 км ясно +27.1 +21.1 70 +34 +34 очень
душно
1006.6 1003.6
18 26.06 З 7 35 км ясно +26.0 +23.0 84 +35 +35 очень
душно
1006.8 1003.8 +33.4
19 26.06 З 8 30 км ясно +25.5 +22.8 85 +34 +34 очень
душно
1007.0 1004.1
20 26.06 З 6 н/о н/о +25.7 +22.4 82 +34 +34 очень
душно
1007.3 1004.3
21 26.06 З 5 30 км ясно +25.3 +22.7 86 +33 +33 очень
душно
1007.4 1004.4
22 26.06 З 5 25 км ясно +24.7 +22.8 89 +33 +33 очень
душно
1007.4 1004.4
23 26.06 З 4 30 км ясно +24.7 +21.7 83 +32 +32 очень
душно
1007.4 1004.4
00 27.06 З 2 н/о н/о +24.2 +20.3 79 +30 +30 очень
душно
1007.2 1004.2
01 27.06 С 1 30 км ясно +23.3 +18.5 74 +29 +29 душно 1007.2 1004.2
02 27.06 С 2 30 км ясно +23.8 +18.6 73 +28 +28 душно 1007.5 1004.5
03 27.06 С 2 40 км ясно +23.5 +16.0 63 +27 +27 душно 1007.7 1004.7
04 27.06 СВ 2 35 км ясно +25.6 +16.4 57 +29 +31 душно 1008.1 1005.1
05 27.06 СВ 4 30 км ясно +27.6 +19.2 60 +33 +36 очень
душно
1008.5 1005.5
06 27.06 В 3 35 км ясно +28.7 +19.6 58 +35 +42 очень
душно
1008.9 1005.9 +23.2
07 27.06 В 3 40 км ясно +30.0 +17.8 48 +34 +46 очень
душно
1008.7 1005.7
08 27.06 В 3 40 км ясно +31.5 +17.0 42 +35 +50 очень
душно
1008.8 1005.9
09 27.06 ЮВ 3 40 км ясно +32.2 +19.3 46 +38 +54 опасность
солнечного
удара
1008.9 1006.0
10 27.06 ЮЗ 5 30 км 1/1 600 м
[Sc]
+29.6 +21.2 61 +37 +47 очень
душно
1009.0 1006.0
11 27.06 ЮЗ 6 30 км 1/1 1200 м
[Cu hum]
+30.9 +19.7 51 +37 +45 очень
душно
1008.7 1005.7
12 27.06 З 7 30 км ясно +29.7 +22.0 63 +38 +43 очень
душно
1008.4 1005.4
13 27.06 З 7 30 км ясно +30.5 +17.4 45 +34 +38 очень
душно
1007.9 1005.0
14 27.06 З 8 30 км 1/1 1500 м
[Cu hum]
+29.9 +18.7 51 +35 +36 очень
душно
1007.5 1004.6
15 27.06 З 8 25 км 1/1 1500 м
[Cu hum]
+30.2 +18.4 49 +35 +36 очень
душно
1007.3 1004.3
16 27.06 ЮЗ 6 н/о н/о +28.4 +19.4 58 +34 +34 очень
душно
1007.1 1004.1

 

Местоположение метеостанции Akrotiri (Кипр): широта 34.58 долгота 32.98 высота над уровнем моря 23 м.

В архиве по умолчанию представлена погода в Akrotiri за последнюю неделю. Архивные данные за месяц целиком и за предыдущие месяцы, начиная с января 2011 года, Вы можете получить, выбрав интересующий диапазон дат из раскрывающегося списка и нажав кнопку "Ввод!".

Внимание! Время в таблицах - всемирное. Для получения местного времени необходимо прибавить поправку, которая в Akrotiri равна 2 ч.

Смотрите также архив погоды в соседних городах и на ближайших метеорологических станциях:

Погода в Paphos (Кипр) (48 км)
Погода в Larnaca (Кипр) (68 км)
Погода в Athalassa (Кипр) (74 км)
Погода в Nicosia (Кипр) (79 км)
Погода в Akdeniz (Кипр) (80 км)
Погода в Kyrenia (Кипр) (91 км)
Погода в Gecitkale (Кипр) (100 км)
Погода в Lefkoniko (Кипр) (101 км)
Погода в Unknown (Турция) (104 км)
Погода в Famagusta (Кипр) (108 км)

Пояснения к столбцам:

Ветер - указаны скорость ветра в м/с - средняя за 10 мин, порывы в срок и между сроками (в фигурных скобках) и направление, откуда дует ветер: С - северный, СВ - северо-восточный, В - восточный, ЮВ - юго-восточный, Ю - южный, ЮЗ - юго-западный, З - западный, СЗ - северо-западный.
Видимость - горизонтальная дальность видимости в метрах или километрах. При видимости от 1 до 10 км при отсутствии осадков обычно наблюдается дымка, при ухудшении видимости до 1 км и менее - туман. В сухую погоду видимость может ухудшаться дымом, пылью или мглою.
Явления - указаны атмосферные явления, наблюдавшиеся в срок или в последний час перед сроком; фигурными скобками обозначены явления, наблюдавшиеся между сроками (за 1-3 часа до срока); квадратными скобками обозначены град или гололедные отложения с указанием их диаметра в мм.
Облачность - указаны через наклонную черту общая и нижняя облачность в баллах и высота нижней границы облаков в метрах; квадратными скобками обозначены формы облаков: Ci - перистые, Cs - перисто-слоистые, Cc - перисто-кучевые, Ac - высококучевые, As - высокослоистые, Sc - слоисто-кучевые, Ns - слоисто-дождевые, Cu - кучевые, Cb - кучево-дождевые. Подробнее классификацию облаков см. в Атласе облаков (PDF).
T - Температура воздуха - температура, измеренная на высоте 2 м над землей.
Td - Температура точки росы - температура, при понижении до которой содержащийся в воздухе водяной пар достигнет насыщения.
f - Относительная влажность воздуха - влажноcть воздуха, измеренная на высоте 2 м над землей.
Te - Эффективная температура - температура, которую ощущает одетый по сезону человек в тени. Характеристика душности погоды. При расчете учитывается влияние влажности воздуха и скорости ветра на теплоощущения человека.
Tes - Эффективная температура на солнце - температура, которую ощущает человек, с поправкой на солнечный нагрев. Характеристика знойности погоды. Зависит от высоты солнца над горизонтом, облачности и скорости ветра. Ночью, в пасмурную погоду, а также при ветре 12 м/с и более поправка равна нулю.
P - Атмосферное давление - приведенное к уровню моря атмосферное давление.
Po - Атмосферное давление - измеренное на уровне метеостанции атмосферное давление.
Tmin - Минимальная температура - минимум температуры воздуха на высоте 2 м над землей.
Tmax - Максимальная температура - максимум температуры воздуха на высоте 2 м над землей.
R - Количество осадков - Количество выпавших осадков за период времени, мм. При наведении курсора мыши на число - период времени, за который выпало указанное количество осадков.
R24 - Количество осадков - Количество выпавших осадков за 24 часа, мм.
S - Снежный покров - Высота снежного покрова, см. При наведении курсора мыши на число - состояние снежного покрова и степень покрытия местности в баллах.